STARLINK-11648, 63313

Orbit data source: Space-Track

STARLINK-11648, 63313 is a payload satellite owned by SpaceX/Seattle (US) in LEO that was launched on Tue, 18 Mar 2025 UTC via an FALCON 9 launch vehicle from the Air Force Eastern Test Range (AFETR). Payload-class satellites include a variety of spacecraft equipped with specific instruments for various scientific and technological missions. These include communications satellites like Starlink; space stations such as the ISS; scientific satellites like the Hubble; Earth observation satellites from companies like Planet Labs, Umbra, and HawkEye 360; GPS; miniature CubeSats for education and research; and military/defense satellites.

Loading next visibility...
Identifier
63313, 2025-057G
Orbit
LEO
Last TLE update
1 day ago
Origin
Manufacturer
SpaceX/Seattle
Mission
Operational spacecraft
Bus & Motor
STARLINK V2M, Unknown motor
Mass
730 kg wet, ~700 kg dry
Launch date (UTC)
2025-03-18 (1 month ago)
Launch vehicle
FALCON 9
Launch site
Air Force Eastern Test Range (AFETR)
Object type
Payload
Rocket body
Debris
Shape & HBR
Unknown
Radar Cross Section
Large (>1 m²)

Expand to show TLE details & history

TLE from 1 day ago
0 STARLINK-11648
1 63313U 25057G   25118.94170416 -.00001780  00000-0 -10405-4 0  9996
2 63313  42.9990   1.9382 0000697 290.3010  69.7783 15.70798422  7272
Epoch: 2025-04-28T22:36Z
Definitive object data (Epoch: 2025-04-28T22:36:03.239Z)
Latitude
0.00001°
Longitude
165.77621°
Altitude
356.223 km
Speed
7.697 km/s
True Right ascension
00h 07m 45s
True Declination
0° 00' 00"
Sunlit
Object was in daylight at TLE epoch
Visualization TLE readout
Latitude
-15.5458°
Longitude
-6.00224°
Altitude
359.745 km
Speed
7.694 km/s
Apparent Right ascension
10h 00m 51s
Apparent Declination
-37° 50' 28"
Sunlit
Object is in full shadow
Visualization observer readout
Local Sidereal Time
18:07:35
Azimuth
253.084° W
Elevation
-45.378°
Doppler factor
1
Orbital elements
Apogee altitude
359.065 km
Perigee altitude
358.126 km
Semi-major axis
6,736.733 km
Eccentricity
0.0000697
Inclination
42.999°
RAAN
1.9382°
Arg. of periapsis
290.301°
True anomaly
69.78579°
Mean anomaly
69.7783°
Eccentric anomaly
69.78205°
Mean motion
3.92527 °/min
BSTAR
-0.000010405
Orbital period
91.71 mins
Loading maneuver chart data...
Loading SW <> Apogee altitude chart data...
Loading historical data...
Loading historical data...
Loading historical data...
Loading historical data...
Loading historical data...
Loading historical data...
Loading historical data...

STARLINK-11648 Visibility forecast

Observer location: undefined°, undefined°

Span
Click to sort rows by Start time (UTC) header in descending order
Start Az.
Max El. time (UTC)
Max El. Az.
Max El.
End time (UTC)
End Az.
4 mins2025-04-30 19:04:33.803Z215.731° SW2025-04-30 19:06:33.803Z157.704° S30.47°2025-04-30 19:08:33.803Z91.517° ESE
4 mins2025-04-30 20:41:33.803Z283.811° WNW2025-04-30 20:42:33.803Z333.751° NNW39.3°2025-04-30 20:45:33.803Z68.672° E
4 mins2025-04-30 22:17:33.803Z302.604° NW2025-04-30 22:18:33.803Z332.923° NNW33.366°2025-04-30 22:21:33.803Z80.297° E
4 mins2025-04-30 23:53:33.803Z277.013° WNW2025-04-30 23:55:33.803Z167.856° S38.907°2025-04-30 23:57:33.803Z124.868° SE
|